Home   Weather   Lippstadt   Past weeks

Flag for Germany Past Weather in Lippstadt, North Rhine-Westphalia, Germany — Yesterday and Last 2 Weeks

Now
46 °F

Sunny.


Feels Like: 41 °F
Forecast: 46 / 51 °F
Wind: 12 mph from Southeast

Location: Paderborn / Lippstadt

Current Time: May 1, 2017 at 6:50:33 am

Latest Report: May 1, 2017 at 6:20 am


Visibility: 10 mi

Pressure: 29.74 "Hg

Humidity: 62%

Dew Point: 34 °F

Location of LippstadtLocation

Past Weather in Lippstadt — Graph

°F

Lippstadt Temperature Yesterday

Maximum temperature yesterday: 61 °F (at 3:20 pm)
Minimum temperature yesterday: 37 °F (at 12:20 am)
Average temperature yesterday: 50 °F

High & Low Weather Summary for the Past Weeks

 TemperatureHumidityPressure
High61 °F (Apr 30, 3:20 pm)100% (Apr 22, 3:50 am)30.60 "Hg (Apr 22, 3:50 am)
Low27 °F (Apr 20, 5:50 am)30% (Apr 27, 3:50 pm)29.62 "Hg (Apr 25, 3:50 am)
Average44 °F63%30.09 "Hg
* Reported Apr 19 8:50 am — May 1 5:50 am, Lippstadt, Weather by CustomWeather, © 2017

Note: Actual official high and low records may vary slightly from our data, if they occured in-between our weather recording intervals... More about our weather records

Advertising

Lippstadt Weather History for the Previous 24 Hours

Scroll right to see more
 ConditionsComfort  
Time TempWeatherWind HumidityBarometerVisibility
5:50 am
Mon, May 1
46 °FClear.15 mph62%29.74 "Hg10 mi
5:20 am46 °FPassing clouds.10 mph62%29.74 "HgN/A
4:50 am46 °FClear.12 mph62%29.74 "Hg10 mi
4:20 am48 °FClear.14 mph58%29.74 "Hg10 mi
3:20 am48 °FClear.12 mph58%29.74 "Hg10 mi
2:20 am48 °FClear.8 mph58%29.74 "Hg10 mi
1:50 am50 °FClear.12 mph54%29.77 "Hg10 mi
12:50 am50 °FClear.13 mph50%29.77 "Hg10 mi
12:20 am50 °FClear.12 mph50%29.77 "Hg10 mi
11:50 pm
Sun, Apr 30
52 °FClear.12 mph44%29.80 "Hg10 mi
11:20 pm52 °FClear.10 mph44%29.80 "Hg10 mi
10:50 pm52 °FClear.10 mph44%29.80 "Hg10 mi
10:20 pm54 °FClear.12 mph41%29.80 "Hg10 mi
9:20 pm54 °FClear.10 mph41%29.80 "Hg10 mi
8:50 pm55 °FClear.12 mph38%29.80 "Hg10 mi
8:20 pm57 °FSunny.13 mph36%29.77 "Hg10 mi
7:50 pm57 °FSunny.16 mph39%29.77 "Hg10 mi
7:20 pm59 °FSunny.17 mph36%29.77 "Hg10 mi
6:50 pm61 °FSunny.17 mph34%29.77 "Hg10 mi
6:20 pm61 °FPassing clouds.15 mph34%29.80 "HgN/A
5:50 pm61 °FPassing clouds.17 mph31%29.80 "HgN/A
5:20 pm61 °FPassing clouds.16 mph31%29.83 "HgN/A
4:50 pm61 °FPassing clouds.16 mph31%29.83 "HgN/A
4:20 pm61 °FPassing clouds.14 mph34%29.83 "HgN/A
3:50 pm59 °FSunny.21 mph34%29.86 "Hg10 mi
3:20 pm61 °FPassing clouds.18 mph34%29.86 "HgN/A
2:50 pm59 °FSunny.20 mph36%29.89 "Hg10 mi
2:20 pm57 °FPassing clouds.18 mph39%29.89 "HgN/A
1:50 pm59 °FPassing clouds.15 mph36%29.92 "HgN/A
1:20 pm57 °FScattered clouds.17 mph36%29.92 "HgN/A
12:50 pm57 °FScattered clouds.16 mph39%29.92 "HgN/A
12:20 pm57 °FScattered clouds.15 mph44%29.95 "HgN/A
11:50 am55 °FSunny.13 mph51%29.95 "Hg10 mi
11:20 am54 °FSunny.15 mph51%29.98 "Hg10 mi
10:50 am50 °FSunny.14 mph54%29.98 "Hg10 mi
10:20 am50 °FPassing clouds.14 mph50%30.01 "HgN/A
9:50 am48 °FPassing clouds.14 mph50%30.01 "HgN/A
9:20 am46 °FSunny.15 mph50%30.01 "Hg10 mi
8:50 am45 °FSunny.13 mph53%30.01 "Hg10 mi
8:20 am45 °FSunny.14 mph53%30.01 "Hg10 mi
7:50 am43 °FSunny.12 mph57%30.01 "Hg10 mi
7:20 am41 °FSunny.10 mph61%30.01 "Hg10 mi
6:50 am39 °FSunny.9 mph61%30.01 "Hg10 mi
6:20 am39 °FSunny.8 mph61%30.01 "Hg10 mi
Weather by CustomWeather, © 2017

See weather overviewHow to use our weather pages